Regional Weather Roundup
Issued by NWS Newport/Morehead, NC

Current Version | Previous Version | Text Only | Print | Product List | Glossary On
Versions: 1 2 3 4 5 6 7 8 9 10 11 12 13 14 15 16 17 18 19 20 21 22 23 24 25 26 27 28 29 30 31 32 33 34 35 36 37 38 39 40 41 42 43 44 45 46 47 48 49 50
000
ASUS42 KMHX 070825
RWRMHX
WEATHER ROUNDUP FOR EASTERN NORTH CAROLINA
NATIONAL WEATHER SERVICE NEWPORT/MOREHEAD CITY NC
400 AM EDT TUE JUL 07 2015

NOTE: "FAIR" INDICATES FEW OR NO CLOUDS BELOW 12,000 FEET
WITH NO SIGNIFICANT WEATHER AND/OR OBSTRUCTIONS TO VISIBILITY

NCZ015>017-031-032-045>047-102-103-070900-
NORTH COAST

CITY           SKY/WX    TMP DP  RH WIND       PRES   REMARKS
EDENTON        PTCLDY    75  72  89 SW9       30.10S
ELIZABETH CITY CLEAR     75  73  93 SW8       30.09S
KITTY HAWK     SUNNY     77  73  87 SW7       30.09S
MANTEO         CLEAR     76  74  92 SW7       30.11R

$$

NCZ045>047-081-094-103-104-070900-
CENTRAL COAST

CITY           SKY/WX    TMP DP  RH WIND       PRES   REMARKS
FRISCO         PTCLDY    77  75  93 SW7       30.11S
SWANQUARTER      N/A     79 N/A N/A SW7G14    30.06S

$$

NCZ095-097-098-100-101-070900-
SOUTHERN COAST

CITY           SKY/WX    TMP DP  RH WIND       PRES   REMARKS
BEAUFORT       PTCLDY    79  75  87 SW12      30.11S
CEDAR ISLAND     N/A     77 N/A N/A SW2G12    30.15S
JACKSONVILLE   CLEAR     75  72  90 S3        30.10S
PINEY ISLAND   SUNNY    N/A N/A N/A S5        30.11R
WILMINGTON     CLEAR     75  72  90 S3        30.11R


$$

NCZ011>013-027>030-043-044-078>080-089-090>093-098-070900-
COASTAL PLAIN

CITY           SKY/WX    TMP DP  RH WIND       PRES   REMARKS
AHOSKIE        CLEAR     72  69  92 S3        30.09R
CLINTON        CLEAR     72  72 100 CALM      30.10S
ELIZABETHTOWN  CLEAR     73  73  97 CALM      30.10S
GOLDSBORO      CLEAR     73  71  95 CALM      30.08S
GREENVILLE     CLEAR     73  72  94 S6        30.11S
HAVELOCK       PTCLDY    75  72  90 S3        30.11F
KENANSVILLE    CLEAR     71  70  96 CALM      30.11S
KINSTON        CLEAR     73  71  95 S5        30.11R
NEW BERN       PTCLDY    76  73  91 S5        30.12R
RICHLANDS      CLEAR     72  66  83 CALM      30.11S
ROCKY MOUNT    CLEAR     71  69  93 S3        30.09S
WASHINGTON     CLEAR     74  72  93 S6        30.11S
WHITEVILLE     CLEAR     73  71  93 CALM      30.10S

$$

AMZ130-135-150-152-154-156-158-170-250-252-270-ANZ085-086-088-633-658-670-070900-
MARINE OBSERVATIONS

STATION/POSITION TIME  TEMP    WIND        PRES    WAVE   SWELL
                       AIR SEA DIR/SP/G            HT/PER HT/PER
                 (UTC) (F)     (DEG/KT/KT) (MB)    (FT/S) (FT/S)
CHESAPEAKE LIGHT 0800   77     210/ 13/ 14 1018.8
64 E VA BEACH    0750   78 77  210/ 10/ 12 1018.6    3/ 8   3/ 8
DUCK             0800   78 73  220/ 12/ 19   N/A
2 E DUCK         0711      75                N/A     2/13   2/13
OREGON INLET     0800   80 82  220/ 14/ 17 1019.1
13E OREGON INLT  0800      77                N/A     3/13   2/13
HATTERAS CG      0800   78 81  210/  6/  8 1019.3
DIAMOND BUOY     0750   80 82  210/ 14/ 16 1019.2    3/ 9   2/ 9
CAPE LOOKOUT     0800   79     220/  7/ 10 1019.3
BEAUFORT LAB     0800   79 82  220/  7/  9 1018.9
30 SE NEW RVR IN NOT AVBL
27 SE WRIGHTSVLE 0800      80  240/  8/ 10   N/A
5 SE WRIGHTSVLE  0708   79 78  230/  8/ 12 1019.4
225 S CAPE HAT   0750   82 80  220/  8/ 10 1021.3    4/ 8   3/ 8
41 SE CHARLESTON 0750   81 83  240/ 10/ 12 1019.0    3/ 8   3/ 8

$$



USA.gov is the U.S. government's official web portal to all federal, state and local government web resources and services.